Date String (YYYY-MM-DD hh:mm:ss) UTC,Instrument flags,absolute air pressure of the measurement (hPa),sample flow rate (lpm),inlet stack bypass flow (lpm),air temperature of the measurement (°C),ambient temperature measured by the external sensor (°C),aerosol sample conditioner tube jacket temperature (°C),OPC LED temperature (°C),internal box temperature (°C),relative humidity of the measurement (%),span deviation,mass concentration of particles derived from Lorenz-Mie calculation of OPC scattering (μg/m³),mass concentration of particles derived from Lorenz-Mie calculation of OPC scattering (μg/m³),mass concentration of particles derived from Lorenz-Mie calculation of OPC scattering (μg/m³)
DateTimeUTC,F1_M11,P_M11,Q1_M11,Q2_M11,T1_M11,T2_M11,T3_M11,T4_M11,T5_M11,U1_M11,ZSPAN_M11,X2_M11,X0_M11,X1_M11
2024-06-05 02:00:00,SystemResetWarning,0826.0,5.02,000.00,029.1,026.6,000.0,037.8,030.2,015.7,0000.0,0001.97,0008.00,0000.98
2024-06-05 02:01:00,SystemResetWarning,0826.1,5.00,000.00,029.1,027.0,000.0,037.7,030.4,015.4,0000.0,0002.01,0008.62,0001.00
2024-06-05 02:02:00,SystemResetWarning,0826.1,5.00,000.00,029.2,027.4,000.0,037.7,030.6,015.5,0000.0,0001.97,0009.58,0001.00
2024-06-05 02:03:00,SystemResetWarning,0826.2,5.01,000.00,029.2,027.7,000.0,037.7,030.8,015.4,0000.0,0001.91,0009.69,0001.01
2024-06-05 02:04:00,SystemResetWarning,0826.2,5.00,000.00,029.3,028.1,000.0,037.6,031.0,015.1,0000.0,0001.88,0009.61,0001.00
2024-06-05 02:05:00,SystemResetWarning,0826.3,5.00,000.00,029.3,028.3,000.0,037.6,031.1,015.5,0000.0,0001.90,0009.69,0001.02
2024-06-05 02:06:00,SystemResetWarning,0826.3,4.99,000.00,029.4,028.6,000.0,037.6,031.2,015.2,0000.0,0001.92,0009.33,0001.02
2024-06-05 02:07:00,SystemResetWarning,0826.4,5.00,000.00,029.5,028.8,000.0,037.7,031.3,015.1,0000.0,0001.89,0009.22,0001.02
2024-06-05 02:08:00,SystemResetWarning,0826.4,5.00,000.00,029.5,028.9,000.0,037.7,031.4,014.9,0000.0,0001.81,0009.33,0001.02
2024-06-05 02:09:00,SystemResetWarning,0826.4,5.00,000.00,029.6,029.1,000.0,037.7,031.4,015.3,0000.0,0001.83,0009.40,0001.02
2024-06-05 02:10:00,SystemResetWarning,0826.4,5.00,000.00,029.7,029.2,000.0,037.7,031.5,015.2,0000.0,0001.77,0008.26,0001.01
2024-06-05 02:11:00,SystemResetWarning,0826.4,4.99,000.00,029.8,029.3,000.0,037.8,031.6,015.5,0000.0,0001.78,0008.22,0001.01
2024-06-05 02:12:00,SystemResetWarning,0826.4,5.00,000.00,029.8,029.4,000.0,037.8,031.7,015.5,0000.0,0001.76,0007.73,0001.00
2024-06-05 02:13:00,SystemResetWarning,0826.4,4.98,000.00,029.8,028.2,000.0,037.9,031.0,015.6,0000.0,0001.74,0005.57,0001.00
2024-06-05 02:14:00,SystemResetWarning,0826.4,5.02,000.00,029.4,026.4,000.0,037.9,030.2,015.9,0000.0,0001.75,0004.79,0000.99
2024-06-05 02:15:00,SystemResetWarning,0826.4,5.00,000.00,029.2,026.6,000.0,037.9,030.2,016.1,0000.0,0001.76,0005.47,0001.00
2024-06-05 02:16:00,SystemResetWarning,0826.4,4.99,000.00,029.2,027.0,000.0,037.8,030.4,016.0,0000.0,0001.75,0005.50,0000.98
2024-06-05 02:17:00,SystemResetWarning,0826.6,5.00,000.00,029.2,027.4,000.0,037.7,030.7,016.0,0000.0,0001.72,0005.62,0000.98
2024-06-05 02:18:00,SystemResetWarning,0826.6,5.01,000.00,029.3,027.8,000.0,037.7,030.8,016.0,0000.0,0001.74,0005.71,0000.97
2024-06-05 02:19:00,SystemResetWarning,0826.5,4.99,000.00,029.3,028.1,000.0,037.7,031.0,015.9,0000.0,0001.77,0005.37,0000.97
2024-06-05 02:20:00,SystemResetWarning,0826.5,4.99,000.00,029.4,028.3,000.0,037.7,031.1,015.8,0000.0,0001.77,0005.10,0000.97
2024-06-05 02:21:00,SystemResetWarning,0826.6,5.00,000.00,029.5,028.6,000.0,037.7,031.2,015.8,0000.0,0001.75,0005.04,0000.98
2024-06-05 02:22:00,SystemResetWarning,0826.6,4.99,000.00,029.5,028.8,000.0,037.7,031.3,015.8,0000.0,0001.72,0005.55,0000.98
2024-06-05 02:23:00,SystemResetWarning,0826.6,5.00,000.00,029.6,028.9,000.0,037.7,031.4,015.7,0000.0,0001.72,0006.28,0000.99
2024-06-05 02:24:00,SystemResetWarning,0826.6,5.00,000.00,029.7,029.1,000.0,037.8,031.5,015.6,0000.0,0001.74,0006.43,0001.00
2024-06-05 02:25:00,SystemResetWarning,0826.6,5.01,000.00,029.7,029.2,000.0,037.8,031.6,015.6,0000.0,0001.70,0006.33,0001.00
2024-06-05 02:26:00,SystemResetWarning,0826.6,5.00,000.00,029.8,029.3,000.0,037.8,031.6,015.6,0000.0,0001.68,0005.75,0001.01
2024-06-05 02:27:00,SystemResetWarning,0826.6,5.00,000.00,029.9,029.4,000.0,037.9,031.7,015.6,0000.0,0001.70,0006.73,0001.01
2024-06-05 02:28:00,SystemResetWarning,0826.6,5.00,000.00,029.9,029.5,000.0,037.9,031.7,015.5,0000.0,0001.75,0006.65,0001.01
2024-06-05 02:29:00,SystemResetWarning,0826.6,4.97,000.00,029.9,028.3,000.0,038.0,031.1,015.5,0000.0,0001.79,0006.91,0001.01
2024-06-05 02:30:00,SystemResetWarning,0826.6,5.02,000.00,029.5,026.4,000.0,038.0,030.3,015.7,0000.0,0001.83,0006.93,0001.02
2024-06-05 02:31:00,SystemResetWarning,0826.6,5.00,000.00,029.3,026.6,000.0,038.0,030.2,016.0,0000.0,0001.83,0007.01,0001.02
2024-06-05 02:32:00,SystemResetWarning,0826.6,4.99,000.00,029.2,027.0,000.0,037.9,030.4,016.1,0000.0,0001.86,0007.74,0001.01
2024-06-05 02:33:00,SystemResetWarning,0826.7,5.01,000.00,029.3,027.4,000.0,037.8,030.7,016.1,0000.0,0001.89,0007.47,0001.00
2024-06-05 02:34:00,SystemResetWarning,0826.7,5.00,000.00,029.3,027.7,000.0,037.7,030.9,016.1,0000.0,0001.86,0006.98,0000.99
2024-06-05 02:35:00,SystemResetWarning,0826.7,4.99,000.00,029.4,028.1,000.0,037.7,031.0,016.0,0000.0,0001.87,0007.06,0000.98
2024-06-05 02:36:00,SystemResetWarning,0826.7,4.99,000.00,029.4,028.3,000.0,037.7,031.1,015.9,0000.0,0001.95,0007.35,0000.98
2024-06-05 02:37:00,SystemResetWarning,0826.8,5.00,000.00,029.5,028.6,000.0,037.7,031.2,015.9,0000.0,0001.98,0007.43,0000.98
2024-06-05 02:38:00,SystemResetWarning,0826.8,5.00,000.00,029.5,028.8,000.0,037.7,031.3,015.8,0000.0,0002.02,0006.21,0000.99
2024-06-05 02:39:00,SystemResetWarning,0826.8,5.00,000.00,029.6,028.9,000.0,037.7,031.4,015.7,0000.0,0002.04,0006.02,0001.00
2024-06-05 02:40:00,SystemResetWarning,0826.8,5.00,000.00,029.7,029.1,000.0,037.8,031.5,015.6,0000.0,0002.03,0005.80,0001.01
2024-06-05 02:41:00,SystemResetWarning,0826.8,5.01,000.00,029.7,029.2,000.0,037.8,031.6,015.5,0000.0,0002.01,0005.72,0001.00
2024-06-05 02:42:00,SystemResetWarning,0826.8,5.00,000.00,029.8,029.3,000.0,037.8,031.6,015.4,0000.0,0002.02,0006.00,0001.01
2024-06-05 02:43:00,SystemResetWarning,0826.8,4.99,000.00,029.9,029.4,000.0,037.9,031.7,015.2,0000.0,0002.00,0005.36,0001.01
2024-06-05 02:44:00,SystemResetWarning,0826.8,5.00,000.00,029.9,029.5,000.0,037.9,031.8,015.0,0000.0,0001.97,0004.97,0001.02
2024-06-05 02:45:00,SystemResetWarning,0826.8,5.00,000.00,030.0,029.6,000.0,038.0,031.8,015.0,0000.0,0002.03,0005.19,0001.04
2024-06-05 02:46:00,SystemResetWarning,0826.8,4.98,000.00,029.9,028.5,000.0,038.1,031.3,015.1,0000.0,0002.04,0005.73,0001.05
2024-06-05 02:47:00,SystemResetWarning,0826.8,5.02,000.00,029.5,026.5,000.0,038.1,030.3,015.4,0000.0,0002.05,0006.43,0001.05
2024-06-05 02:48:00,SystemResetWarning,0826.8,5.00,000.00,029.3,026.5,000.0,038.1,030.2,015.8,0000.0,0002.03,0006.59,0001.05
2024-06-05 02:49:00,SystemResetWarning,0826.8,4.99,000.00,029.2,026.9,000.0,037.9,030.4,015.8,0000.0,0001.99,0008.10,0001.04
2024-06-05 02:50:00,SystemResetWarning,0826.8,5.01,000.00,029.3,027.3,000.0,037.9,030.7,015.8,0000.0,0001.96,0008.16,0001.04
2024-06-05 02:51:00,SystemResetWarning,0826.8,5.01,000.00,029.3,027.7,000.0,037.8,030.8,015.5,0000.0,0001.97,0008.18,0001.02
2024-06-05 02:52:00,SystemResetWarning,0826.8,4.99,000.00,029.4,028.0,000.0,037.8,031.0,015.2,0000.0,0001.93,0008.13,0001.02
2024-06-05 02:53:00,SystemResetWarning,0826.9,5.00,000.00,029.4,028.3,000.0,037.8,031.1,015.2,0000.0,0001.89,0007.93,0001.01
2024-06-05 02:54:00,SystemResetWarning,0826.9,5.00,000.00,029.5,028.5,000.0,037.8,031.2,015.1,0000.0,0001.93,0007.69,0001.02
2024-06-05 02:55:00,SystemResetWarning,0826.9,5.00,000.00,029.5,028.7,000.0,037.8,031.3,015.0,0000.0,0001.95,0007.77,0001.02
2024-06-05 02:56:00,SystemResetWarning,0827.0,5.01,000.00,029.6,028.9,000.0,037.8,031.4,015.1,0000.0,0001.92,0007.68,0001.00
2024-06-05 02:57:00,SystemResetWarning,0827.0,5.00,000.00,029.7,029.0,000.0,037.8,031.5,015.2,0000.0,0001.85,0007.43,0000.98
2024-06-05 02:58:00,SystemResetWarning,0827.0,4.99,000.00,029.7,029.1,000.0,037.8,031.5,015.1,0000.0,0001.79,0007.10,0000.97
2024-06-05 02:59:00,SystemResetWarning,0827.0,5.00,000.00,029.8,029.2,000.0,037.8,031.6,015.0,0000.0,0001.78,0007.38,0000.96
